User: anonymous   Login
Location: Muenchen
(48.1800°N, 11.5800°E)
Time: 14:13:41
(UTC+01:00)
Language:

Cosmos 2233 Rocket - Orbit

View from above orbital plane
View from above orbital plane
View from above satellite
View from above satellite

Ground track
Ground track

The orbit data is extracted from the following two-line orbital elements,

1 22488U 93008B   15032.04402042  .00000110  00000-0  94627-4 0   491
2 22488 082.9449 003.7007 0026584 133.5137 295.1001 13.77655780104863
Epoch (UTC): 01 February 2015 01:03:23
Eccentricity: 0.0026584
inclination: 82.9449°
perigee height: 952 km
apogee height: 992 km
right ascension of ascending node: 3.7007°
argument of perigee: 133.5137°
revolutions per day: 13.77655780
mean anomaly at epoch: 295.1001°
orbit number at epoch: 10486

The dashed part of the orbit path shows where the satellite is in the earth's shadow,  

DLR